West Memphis, AR

4:48 AM CDT on May 25, 2018 (GMT -0500)
West Memphis Municipal

Weather History for KAWM - April, 2013

Change the Weather History Date:

Tuesday, April 16, 2013

  Actual Average Record
Temperature  
Mean Temperature 75 °F -  
Max Temperature 84 °F 74 °F 87 °F (1977)
Min Temperature 68 °F 51 °F 32 °F (1962)
Cooling Degree Days 10    
Growing Degree Days 25 (Base 50)    
Moisture  
Dew Point 68 °F    
Average Humidity 78    
Maximum Humidity 90    
Minimum Humidity 63    
Precipitation  
Precipitation 0.00 in - - ()
Sea Level Pressure  
Sea Level Pressure 29.98 in    
Wind  
Wind Speed 12 mph (South)    
Max Wind Speed 22 mph    
Max Gust Speed 28 mph    
Visibility 10 miles    
Events      
Averages and records for this station are not official NWS values.
T = Trace of Precipitation, MM = Missing Value Source: NWS Daily Summary

Daily Weather History Graph

Daily Weather History Graph

Search for Another Location

Airport or City:

Astronomy

Apr. 16, 2013 Rise Set
Actual Time 6:27 AM CDT 7:34 PM CDT
Civil Twilight 6:01 AM CDT 8:00 PM CDT
Nautical Twilight 5:29 AM CDT 8:32 PM CDT
Astronomical Twilight 4:57 AM CDT 9:04 PM CDT
Moon 10:51 AM CDT (4/16) 12:25 AM CDT (4/16)
Length of Visible Light 13h 59m
Length of Day
13h 07m
Waxing Crescent, 33% of the Moon is Illuminated
Apr 16
Waxing Crescent
Apr 18
First Quarter
Apr 25
Full
May 2
Last Quarter
May 9
New

Hourly Weather History & Observations

Time (CDT) Temp. Heat Index Dew Point Humidity Pressure Visibility Wind Dir Wind Speed Gust Speed Precip Events Conditions
12:53 AM 69.1 °F - 63.0 °F 81% 29.90 in 10.0 mi South 11.5 mph - N/A   Clear
1:53 AM 69.1 °F - 63.0 °F 81% 29.90 in 10.0 mi SSE 11.5 mph - N/A   Partly Cloudy
2:53 AM 68.0 °F - 64.0 °F 87% 29.89 in 10.0 mi SSE 10.4 mph - N/A   Clear
3:28 AM 69.8 °F - 64.4 °F 83% 29.91 in 10.0 mi South 12.7 mph - N/A   Mostly Cloudy
3:53 AM 70.0 °F - 66.0 °F 87% 29.91 in 10.0 mi South 11.5 mph - N/A   Overcast
4:53 AM 71.1 °F - 66.9 °F 87% 29.92 in 10.0 mi South 11.5 mph - N/A   Overcast
5:53 AM 71.1 °F - 68.0 °F 90% 29.94 in 10.0 mi South 9.2 mph - N/A   Overcast
6:12 AM 71.6 °F - 68.0 °F 88% 29.96 in 10.0 mi South 9.2 mph - N/A   Overcast
7:53 AM 72.0 °F - 68.0 °F 87% 30.01 in 8.0 mi South 8.1 mph - N/A   Overcast
8:53 AM 73.9 °F - 70.0 °F 87% 30.01 in 9.0 mi South 11.5 mph - N/A   Overcast
9:27 AM 75.2 °F - 69.8 °F 83% 30.02 in 10.0 mi South 13.8 mph - N/A   Scattered Clouds
9:53 AM 77.0 °F - 70.0 °F 79% 30.01 in 10.0 mi South 16.1 mph - N/A   Partly Cloudy
10:43 AM 78.8 °F - 69.8 °F 74% 30.03 in 10.0 mi South 17.3 mph 24.2 mph N/A   Mostly Cloudy
10:53 AM 79.0 °F - 71.1 °F 77% 30.02 in 10.0 mi South 17.3 mph 24.2 mph N/A   Mostly Cloudy
11:41 AM 80.6 °F 84.6 °F 71.6 °F 74% 30.03 in 10.0 mi South 18.4 mph 23.0 mph N/A   Scattered Clouds
11:53 AM 80.1 °F 83.6 °F 71.1 °F 74% 30.01 in 10.0 mi South 16.1 mph 27.6 mph N/A   Scattered Clouds
12:14 PM 80.6 °F 84.6 °F 71.6 °F 74% 30.02 in 10.0 mi South 17.3 mph 24.2 mph N/A   Mostly Cloudy
12:36 PM 82.4 °F 87.2 °F 71.6 °F 70% 30.02 in 10.0 mi South 16.1 mph 25.3 mph N/A   Scattered Clouds
12:53 PM 82.0 °F 85.9 °F 70.0 °F 67% 30.00 in 10.0 mi SSW 11.5 mph 26.5 mph N/A   Scattered Clouds
1:53 PM 82.0 °F 85.9 °F 70.0 °F 67% 29.99 in 10.0 mi South 18.4 mph 26.5 mph N/A   Partly Cloudy
2:53 PM 82.9 °F 87.0 °F 70.0 °F 65% 29.98 in 10.0 mi South 21.9 mph 27.6 mph N/A   Clear
3:53 PM 82.0 °F 85.9 °F 70.0 °F 67% 29.97 in 10.0 mi South 17.3 mph 21.9 mph N/A   Clear
4:53 PM 82.9 °F 86.5 °F 69.1 °F 63% 29.96 in 10.0 mi SSW 12.7 mph 23.0 mph N/A   Clear
5:53 PM 82.0 °F 85.5 °F 69.1 °F 65% 29.97 in 10.0 mi South 13.8 mph 23.0 mph N/A   Clear
6:53 PM 80.1 °F 82.7 °F 68.0 °F 67% 29.97 in 10.0 mi South 13.8 mph 21.9 mph N/A   Clear
7:53 PM 77.0 °F - 68.0 °F 74% 29.99 in 10.0 mi South 9.2 mph - N/A   Partly Cloudy
8:53 PM 73.0 °F - 68.0 °F 84% 30.01 in 10.0 mi South 5.8 mph - N/A   Clear
9:53 PM 71.1 °F - 66.9 °F 87% 30.03 in 10.0 mi SE 4.6 mph - N/A   Clear
10:53 PM 70.0 °F - 66.9 °F 90% 30.02 in 10.0 mi SSE 4.6 mph - N/A   Clear
11:53 PM 72.0 °F - 68.0 °F 87% 30.02 in 10.0 mi South 5.8 mph - N/A   Overcast